Location: Krasnoyarskiy Pitomnik
(51.1333°N, 71.6167°E)
Time: 13:50:49
(UTC+00:00)

Transit 2A - Pass Details

Date: 22 April 2024
Orbit: 594 x 958 km, 66.7° (Epoch: 27 May)

Event Time Altitude Azimuth Distance (km) Brightness Sun altitude
Rises 07:15:49 0° 320° (NW) 3,127 8.9 51.3°
Reaches altitude 10° 07:18:35 10° 336° (NNW) 2,270 8.2 51.2°
Maximum altitude 07:22:41 23° 28° (NNE) 1,649 7.6 51.2°
Drops below altitude 10° 07:27:05 10° 79° (E) 2,460 8.6 51.1°
Sets 07:30:12 0° 94° (E) 3,459 9.4 51.1°
